Wind_Speed
24 23 16 10 6 4 4 6 6 4 5 3 3 4 5 8 8 7 6 10 9 8 11 11 11 12 12 12 12 13 14 14 14 16 16 17 18 21 24 25 26 27 29 30
32 33 23 18 13 10 8 4 4 6 7 6 4 2 4 2 5 3 5 5 7 6 9 10 10 9 9 11 12 13 14 15 17 19 20 20 22 24 26 27 29 29 30 32
40 42 27 26 23 18 15 11 7 6 8 9 8 6 5 8 5 6 3 1 3 5 6 7 7 7 9 11 13 14 15 17 19 20 21 23 25 24 27 29 30 30 32 35
45 44 34 34 30 26 22 18 14 11 8 11 11 10 9 8 10 8 8 5 7 9 9 11 10 12 12 13 16 18 20 22 23 25 27 28 29 29 30 32 32 33 34 37
47 46 39 41 40 34 31 23 20 18 15 11 14 13 15 11 12 13 13 13 11 13 12 14 15 16 16 16 18 21 24 24 25 27 30 32 32 33 34 35 37 38 39 41
56 50 43 42 46 38 36 28 26 22 22 20 16 19 17 15 18 17 14 15 18 16 17 19 19 16 19 20 21 24 27 29 30 30 31 32 35 36 37 38 38 41 43 44
57 53 45 47 47 41 40 37 33 31 27 30 20 22 21 18 21 20 19 20 18 17 18 21 21 20 23 26 28 31 32 33 33 34 36 37 37 38 40 41 40 41 45 47
63 61 50 48 49 46 50 45 41 40 37 36 25 24 29 25 24 27 26 28 28 27 26 26 29 31 31 30 31 33 35 37 38 37 40 43 43 44 45 43 43 45 45 47
66 63 60 55 56 57 53 47 48 45 41 38 31 31 34 33 32 30 33 35 35 36 35 33 34 35 36 34 34 37 40 40 42 42 43 46 47 50 51 48 45 47 50 51
71 70 68 63 63 58 55 54 49 45 42 39 37 38 39 39 36 37 39 41 40 39 40 41 42 41 40 40 39 41 43 44 45 45 45 46 47 51 54 52 52 53 56 49
75 71 73 72 66 62 61 56 51 49 45 42 41 39 42 41 39 40 40 42 42 44 43 44 47 46 44 44 45 44 44 45 45 45 46 49 50 53 55 55 56 57 54 50
74 75 82 72 68 68 65 61 59 56 50 50 47 43 42 41 43 43 43 42 44 46 47 45 46 47 47 48 49 49 48 49 47 49 53 53 53 53 55 56 53 57 60 60
78 77 81 79 77 72 66 62 63 58 59 55 51 45 49 46 46 45 46 46 49 48 47 48 49 49 50 53 55 54 51 53 51 51 53 55 56 57 58 60 63 61 63 62
86 81 82 78 71 71 70 68 67 65 62 58 54 52 53 50 48 46 48 45 47 51 54 53 53 55 57 57 56 55 58 57 55 56 56 57 57 59 63 64 64 65 65 68
84 80 79 77 78 79 78 77 75 70 65 65 61 61 58 55 53 51 51 51 49 51 56 57 56 57 56 59 61 63 62 60 60 58 57 61 60 52 57 59 63 66 67 74
86 80 79 78 80 85 82 79 78 74 71 70 66 62 61 59 58 58 58 58 56 57 61 61 58 58 60 63 64 63 63 64 63 59 59 60 56 52 66 68 73 72 79 73
86 80 79 74 77 83 87 81 78 76 76 73 68 65 69 66 63 63 65 62 61 62 64 67 63 64 66 69 70 67 67 69 67 64 65 59 69 49 58 70 79 80 79 74
85 80 78 73 80 87 83 79 78 79 80 78 67 69 72 73 68 66 64 62 63 64 67 69 70 72 73 73 71 70 72 73 72 69 66 63 39 62 71 79 80 78 72 73
86 84 83 79 81 80 80 80 80 79 78 76 70 70 70 69 65 60 57 60 62 64 68 70 69 70 73 71 70 69 70 70 70 71 64 58 64 70 75 73 71 70 70 70
88 86 87 83 85 83 81 80 77 74 75 71 65 64 64 67 64 62 64 65 67 68 71 69 68 71 71 71 71 69 68 71 71 66 59 67 64 66 66 70 63 62 63 66
89 89 90 88 87 86 82 80 78 76 71 66 66 68 70 72 71 71 71 70 73 73 75 71 73 72 77 74 71 71 72 70 68 64 66 56 55 56 54 56 58 58 59 53
90 87 88 89 89 88 84 81 80 78 77 73 72 73 75 73 75 77 75 75 74 76 74 72 72 74 73 76 76 71 71 72 66 60 54 54 51 45 59 65 60 55 43 45
88 87 85 85 87 86 86 84 82 82 83 81 80 80 81 79 78 78 79 79 78 77 77 77 79 78 80 77 72 74 71 70 69 60 47 40 43 58 61 60 60 64 56 68
81 84 85 84 83 82 81 81 81 82 81 82 83 84 84 83 83 81 80 81 80 81 83 84 83 80 79 75 76 71 67 66 47 38 47 48 52 57 65 73 73 67 58 62
86 85 82 83 80 81 77 79 78 80 80 82 84 84 83 83 84 84 82 84 85 89 81 82 79 76 76 76 69 57 43 47 49 55 56 57 61 65 74 73 64 69 74 78
78 80 80 80 76 76 76 82 84 82 82 84 83 85 85 80 81 85 83 70 82 81 77 76 73 72 74 70 75 49 37 56 62 74 69 67 69 76 79 82 87 93 97 97
Wind_Direction
269 269 265 271 280 307 323 356 344 12 8 50 66 47 61 92 94 105 115 101 90 90 90 78 66 51 39 36 37 33 29 23 20 20 16 12 6 5 4 4 3 4 2 359
263 259 256 259 264 274 270 254 304 314 307 321 347 41 79 115 132 139 124 103 100 75 62 61 49 40 29 16 17 15 9 4 6 6 360 357 353 354 355 355 354 353 354 355
253 253 253 259 260 262 259 251 241 269 283 294 296 299 303 224 207 198 193 10 27 21 14 11 12 7 355 350 350 348 349 350 348 344 345 345 346 338 343 343 343 341 347 349
250 255 250 253 256 255 256 244 247 245 252 275 282 292 283 246 267 272 275 291 303 310 302 328 331 336 336 339 339 338 341 339 336 336 339 338 336 335 332 330 331 333 334 339
246 249 247 247 246 247 249 246 239 243 245 257 274 270 275 280 268 275 280 288 283 293 297 304 314 318 324 327 330 332 329 329 331 333 332 330 328 328 324 321 326 327 329 330
243 246 246 248 251 248 246 246 247 238 246 241 245 269 273 275 275 272 277 274 281 290 294 297 302 311 311 318 322 324 323 322 325 327 325 322 322 321 322 323 322 323 325 323
249 251 247 247 253 253 254 245 241 243 243 249 239 258 256 268 278 282 282 282 279 286 294 301 302 305 308 309 314 315 315 313 317 318 317 317 318 319 320 321 319 319 322 320
238 243 243 248 250 248 247 246 244 238 240 244 240 249 258 261 267 277 281 285 288 287 287 295 301 300 302 306 310 310 309 309 312 314 312 313 315 315 319 317 313 315 317 318
239 242 240 238 241 243 246 245 245 246 243 242 241 242 254 253 257 263 273 277 281 283 287 287 288 288 292 297 301 302 303 304 306 309 309 311 314 313 316 314 312 311 313 314
235 234 239 236 238 242 248 247 249 252 251 248 243 240 244 248 251 256 261 266 271 277 283 285 286 288 293 295 294 294 297 301 305 307 308 309 309 308 311 312 309 309 309 306
236 236 239 237 239 241 241 245 248 248 250 249 250 250 249 252 253 254 261 268 276 279 279 283 287 290 292 292 292 293 296 299 304 308 308 307 307 309 310 309 308 308 312 311
235 237 240 240 239 241 243 244 246 250 251 250 250 253 254 256 256 258 262 263 270 274 278 280 284 288 292 291 291 292 296 300 302 305 305 305 307 309 309 307 306 306 308 309
232 234 239 240 241 242 246 247 248 249 248 253 254 253 256 253 256 258 260 263 266 273 277 279 280 281 283 286 291 295 297 296 299 300 302 306 310 310 308 301 302 302 303 307
230 230 234 240 244 244 245 246 247 249 249 251 251 248 251 255 255 259 262 263 266 270 271 273 277 280 283 288 291 291 289 293 297 299 303 306 309 307 305 303 301 301 302 308
229 231 233 238 241 242 241 243 245 247 248 251 251 252 256 258 261 263 264 267 267 269 272 274 275 277 280 282 281 283 288 293 295 298 304 304 311 308 306 304 302 301 302 307
228 228 231 233 236 243 246 246 248 249 250 252 254 258 261 263 266 266 266 265 266 268 269 272 273 278 278 279 282 285 289 291 294 300 298 302 309 285 293 294 295 299 304 306
229 228 231 233 237 241 242 244 248 251 252 253 256 259 263 264 264 265 265 266 268 270 269 271 272 272 274 276 279 284 285 287 290 292 296 301 302 284 291 295 296 296 297 302
229 228 231 230 235 238 241 242 245 248 252 253 255 257 260 261 262 263 265 270 270 271 271 272 274 275 276 280 285 284 287 290 293 294 297 300 293 280 290 291 290 293 297 301
226 227 230 230 236 240 241 242 243 244 247 250 250 253 257 259 263 266 267 267 268 269 270 272 275 278 280 283 285 287 288 288 291 290 291 292 289 282 283 286 290 295 301 306
223 226 229 229 234 237 240 241 244 246 249 251 255 257 259 262 265 265 265 267 269 271 272 275 277 277 281 284 286 288 288 290 290 294 294 297 286 285 288 290 295 302 304 307
221 224 228 230 233 238 240 243 244 246 249 252 253 256 258 260 263 266 268 269 271 273 276 278 279 281 282 285 287 288 291 291 295 301 305 300 293 297 292 297 301 303 306 299
221 222 228 231 233 236 239 242 246 249 250 251 253 255 258 261 266 269 273 274 274 274 276 277 279 282 285 286 289 291 295 300 307 304 304 299 298 285 293 293 292 299 307 268
219 222 224 231 234 238 239 242 246 250 253 256 257 258 259 261 263 266 270 272 274 277 278 277 281 284 286 284 290 296 303 307 307 305 302 287 285 290 288 294 295 298 287 279
220 225 224 228 231 233 237 242 245 248 251 254 255 258 260 263 265 267 268 272 273 274 274 279 279 280 283 289 293 299 305 306 306 295 298 292 286 286 291 290 288 290 283 281
222 224 226 230 232 233 234 240 243 247 249 251 255 259 260 264 267 267 268 270 271 274 279 278 282 286 286 290 293 300 309 309 293 289 287 285 284 283 288 282 286 287 286 286
224 226 229 231 232 237 239 239 238 244 249 251 255 258 259 263 264 267 269 256 271 273 274 279 281 283 286 285 289 276 261 252 264 273 275 276 277 286 285 287 288 289 292 291
Height
10975 10975 10978 10979 10981 10980 10980 10977 10977 10978 10978 10977 10976 10975 10974 10974 10974 10974 10974 10973 10972 10973 10971 10970 10969 10970 10970 10970 10967 10965 10963 10962 10960 10958 10956 10954 10951 10949 10945 10943 10940 10937 10935 10930
10969 10967 10973 10975 10977 10977 10978 10978 10977 10976 10977 10977 10976 10976 10975 10975 10974 10975 10974 10974 10973 10973 10972 10970 10970 10970 10969 10969 10968 10966 10964 10962 10959 10956 10954 10952 10949 10946 10943 10940 10938 10935 10932 10928
10961 10957 10968 10969 10972 10974 10975 10974 10974 10974 10975 10975 10976 10977 10977 10976 10976 10975 10975 10973 10972 10972 10972 10972 10970 10970 10970 10968 10966 10964 10962 10959 10957 10956 10953 10950 10948 10945 10941 10937 10935 10932 10927 10922
10951 10952 10962 10963 10965 10968 10969 10970 10970 10973 10973 10973 10974 10974 10976 10976 10974 10973 10973 10972 10971 10971 10971 10970 10970 10969 10968 10966 10964 10962 10959 10957 10955 10952 10948 10944 10942 10940 10937 10935 10931 10927 10922 10916
10943 10943 10951 10954 10955 10960 10961 10965 10968 10969 10971 10970 10971 10973 10972 10973 10972 10971 10972 10971 10970 10970 10969 10969 10968 10967 10965 10963 10961 10959 10957 10954 10950 10947 10943 10940 10938 10935 10932 10929 10924 10919 10914 10909
10927 10933 10941 10945 10943 10953 10954 10960 10962 10964 10967 10967 10968 10967 10968 10968 10968 10969 10968 10968 10967 10968 10967 10967 10966 10964 10962 10960 10958 10957 10954 10950 10946 10942 10940 10938 10933 10929 10926 10922 10916 10911 10906 10902
10919 10925 10933 10933 10935 10943 10946 10951 10955 10958 10961 10959 10964 10965 10966 10965 10963 10963 10963 10962 10964 10964 10963 10961 10960 10959 10957 10955 10952 10950 10948 10945 10942 10939 10935 10932 10929 10925 10920 10915 10910 10905 10901 10896
10905 10909 10922 10926 10927 10930 10930 10938 10944 10948 10952 10953 10961 10962 10957 10961 10961 10957 10957 10955 10957 10957 10958 10957 10954 10952 10950 10949 10946 10944 10942 10938 10935 10933 10928 10925 10920 10916 10913 10908 10903 10898 10893 10888
10895 10901 10904 10911 10910 10913 10919 10929 10930 10936 10943 10949 10954 10955 10952 10954 10956 10955 10951 10949 10950 10949 10949 10948 10948 10946 10944 10944 10942 10939 10935 10931 10929 10926 10922 10915 10911 10905 10902 10899 10895 10888 10883 10878
10878 10883 10887 10893 10895 10904 10910 10914 10921 10928 10933 10938 10942 10947 10948 10948 10950 10949 10947 10944 10944 10942 10940 10938 10937 10937 10936 10935 10935 10932 10928 10924 10920 10916 10912 10907 10900 10895 10891 10887 10883 10877 10870 10864
10862 10872 10869 10873 10888 10893 10898 10904 10911 10915 10922 10928 10931 10936 10937 10939 10941 10941 10939 10937 10933 10929 10932 10930 10927 10927 10926 10924 10923 10922 10920 10917 10912 10906 10901 10897 10892 10885 10879 10874 10869 10863 10858 10853
10850 10855 10845 10868 10875 10877 10883 10892 10897 10903 10911 10914 10919 10925 10927 10930 10930 10931 10931 10931 10927 10924 10922 10924 10921 10918 10915 10913 10911 10910 10909 10906 10902 10898 10893 10888 10882 10875 10870 10862 10856 10850 10845 10842
10830 10840 10840 10848 10853 10866 10877 10883 10884 10891 10895 10903 10910 10917 10912 10918 10919 10921 10924 10924 10920 10919 10918 10914 10911 10908 10906 10901 10898 10897 10895 10894 10891 10888 10884 10878 10873 10864 10858 10852 10847 10840 10835 10831
10800 10818 10826 10838 10856 10857 10860 10866 10868 10874 10880 10889 10896 10900 10901 10904 10909 10911 10911 10916 10916 10911 10906 10904 10903 10898 10894 10891 10886 10884 10883 10882 10881 10879 10874 10868 10865 10857 10847 10838 10832 10827 10823 10820
10793 10806 10815 10830 10835 10834 10841 10845 10851 10859 10868 10869 10880 10883 10888 10893 10897 10901 10902 10902 10903 10899 10893 10892 10891 10889 10887 10881 10876 10873 10871 10870 10869 10870 10867 10859 10855 10846 10836 10826 10817 10812 10809 10805
10774 10793 10800 10809 10815 10815 10824 10833 10836 10845 10852 10855 10864 10873 10875 10881 10885 10886 10886 10887 10889 10888 10882 10880 10881 10877 10872 10868 10865 10863 10860 10857 10858 10862 10858 10852 10849 10836 10824 10816 10809 10799 10794 10787
10757 10777 10785 10799 10801 10798 10798 10818 10824 10829 10834 10842 10852 10861 10857 10864 10869 10870 10867 10871 10873 10874 10870 10864 10867 10864 10859 10855 10854 10855 10851 10846 10848 10850 10847 10844 10831 10823 10812 10807 10800 10789 10781 10772
10743 10759 10768 10784 10775 10771 10788 10802 10808 10812 10815 10823 10839 10843 10841 10841 10849 10852 10855 10856 10855 10855 10852 10849 10847 10845 10843 10841 10843 10842 10837 10833 10830 10832 10834 10836 10821 10809 10801 10793 10786 10776 10766 10756
10723 10738 10746 10761 10761 10767 10774 10781 10787 10794 10800 10807 10820 10824 10825 10827 10830 10834 10838 10838 10837 10837 10833 10831 10832 10830 10826 10826 10826 10826 10823 10819 10815 10815 10819 10823 10820 10803 10789 10779 10770 10758 10749 10739
10705 10717 10727 10741 10740 10745 10756 10766 10774 10783 10785 10799 10808 10811 10812 10808 10813 10817 10817 10818 10818 10816 10814 10817 10818 10812 10811 10811 10810 10811 10807 10802 10800 10800 10801 10798 10788 10780 10768 10760 10750 10741 10734 10724
10685 10697 10706 10718 10724 10730 10743 10750 10760 10766 10776 10787 10792 10792 10792 10790 10792 10795 10797 10801 10798 10798 10795 10799 10796 10794 10789 10790 10793 10791 10791 10789 10787 10784 10778 10771 10764 10755 10746 10740 10735 10732 10721 10710
10669 10683 10692 10701 10709 10717 10731 10740 10745 10754 10759 10768 10774 10774 10773 10775 10775 10773 10778 10777 10780 10777 10781 10782 10777 10774 10773 10769 10769 10773 10773 10769 10766 10762 10759 10753 10745 10738 10730 10725 10724 10723 10718 10694
10652 10666 10678 10686 10698 10708 10718 10724 10730 10732 10736 10745 10752 10753 10751 10755 10760 10759 10761 10760 10759 10758 10758 10758 10758 10759 10755 10756 10755 10756 10754 10749 10748 10743 10740 10734 10728 10722 10716 10711 10708 10707 10709 10693
10644 10650 10660 10668 10679 10692 10701 10706 10714 10716 10719 10722 10725 10728 10734 10738 10740 10743 10742 10740 10740 10741 10740 10740 10740 10742 10739 10738 10738 10742 10741 10738 10733 10728 10724 10720 10714 10707 10701 10692 10689 10688 10684 10680
10631 10637 10647 10653 10665 10675 10689 10691 10695 10696 10701 10704 10706 10712 10714 10717 10719 10719 10720 10721 10720 10720 10725 10718 10724 10723 10721 10722 10726 10735 10736 10727 10719 10712 10708 10702 10695 10689 10680 10673 10672 10668 10664 10661
10614 10627 10633 10644 10651 10661 10668 10674 10681 10684 10689 10690 10692 10694 10695 10696 10697 10701 10705 10704 10704 10702 10703 10702 10702 10705 10705 10708 10706 10715 10722 10707 10696 10696 10689 10683 10678 10673 10669 10658 10652 10647 10643 10640